Home   Weather   Roanoke   Past weeks
Flag for USA

Past Weather in Roanoke, Alabama, USA — Yesterday and Last 2 Weeks

Now
90 °F

Scattered clouds.


Feels Like: 97 °F
Forecast: 88 / 68 °F
Wind: 6 mph from Southwest

Location: Callaway Airport

Current Time: Jun 17, 2019 at 2:02:01 pm

Latest Report: Jun 17, 2019 at 1:35 pm


Visibility: 10 mi

Pressure: 30.04 "Hg

Humidity: 56%

Dew Point: 72 °F

Location of RoanokeLocation

Past Weather in Roanoke — Graph

°F

Roanoke Temperature Yesterday

Maximum temperature yesterday: 92 °F (at 4:55 pm)
Minimum temperature yesterday: 67 °F (at 5:15 am)
Average temperature yesterday: 79 °F

High & Low Weather Summary for the Past Weeks

 TemperatureHumidityPressure
High93 °F (Jun 3, 3:15 pm)99% (Jun 3, 2:55 am)30.22 "Hg (Jun 3, 2:55 am)
Low54 °F (Jun 14, 5:35 am)29% (Jun 3, 2:35 pm)29.74 "Hg (Jun 7, 1:35 pm)
Average76 °F79%29.98 "Hg
* Reported Jun 2 12:15 pm — Jun 17 12:55 pm, Roanoke. Weather by CustomWeather, © 2019

Note: Actual official high and low records may vary slightly from our data, if they occured in-between our weather recording intervals... More about our weather records

Advertising

Roanoke Weather History for the Previous 24 Hours

Scroll right to see more
 ConditionsComfort  
Time TempWeatherWind HumidityBarometerVisibility
12:55 pm
Mon, Jun 17
91 °FScattered clouds.7 mph52%30.05 "Hg10 mi
12:35 pm90 °FBroken clouds.6 mph55%30.06 "Hg10 mi
12:15 pm91 °FScattered clouds.7 mph51%30.06 "Hg10 mi
11:55 am90 °FScattered clouds.7 mph51%30.07 "Hg10 mi
11:35 am89 °FScattered clouds.No wind54%30.06 "Hg10 mi
10:55 am88 °FScattered clouds.3 mph56%30.07 "Hg10 mi
10:35 am89 °FSunny.No wind58%30.07 "Hg10 mi
10:15 am87 °FSunny.5 mph60%30.07 "Hg10 mi
9:55 am85 °FSunny.5 mph61%30.07 "Hg10 mi
9:35 am86 °FSunny.5 mph63%30.07 "Hg10 mi
9:15 am84 °FSunny.No wind69%30.07 "Hg10 mi
8:55 am84 °FSunny.No wind68%30.07 "Hg10 mi
8:35 am82 °FSunny.No wind70%30.07 "Hg10 mi
8:15 am81 °FSunny.No wind75%30.07 "Hg10 mi
7:55 am80 °FSunny.No wind79%30.07 "Hg10 mi
7:35 am79 °FSunny.3 mph79%30.07 "Hg10 mi
6:55 am73 °FSunny.No wind98%30.06 "Hg10 mi
6:35 am72 °FSunny.No wind98%30.05 "Hg10 mi
6:15 am70 °FSunny.No wind98%30.04 "Hg10 mi
5:55 am68 °FSunny.No wind98%30.03 "Hg10 mi
5:35 am69 °FSunny.No wind98%30.03 "Hg10 mi
4:55 am69 °FClear.No wind98%30.01 "Hg10 mi
4:35 am69 °FClear.No wind98%30.00 "Hg10 mi
4:15 am69 °FClear.No wind98%30.00 "Hg10 mi
3:55 am70 °FClear.No wind98%29.99 "Hg10 mi
3:35 am70 °FClear.No wind98%29.99 "Hg10 mi
3:15 am70 °FClear.No wind99%29.99 "Hg10 mi
2:55 am72 °FClear.No wind98%29.99 "Hg10 mi
2:35 am71 °FClear.3 mph98%30.00 "Hg10 mi
2:15 am70 °FClear.No wind99%30.01 "Hg10 mi
1:55 am69 °FFog.No wind98%30.02 "Hg5 mi
1:15 am71 °FClear.No wind98%30.03 "Hg10 mi
12:55 am71 °FClear.No wind98%30.04 "Hg10 mi
12:35 am71 °FPassing clouds.No wind98%30.04 "Hg10 mi
12:15 am71 °FClear.No wind98%30.04 "Hg10 mi
11:55 pm
Sun, Jun 16
72 °FClear.No wind98%30.05 "Hg10 mi
11:35 pm72 °FClear.No wind98%30.04 "Hg10 mi
11:15 pm72 °FPassing clouds.No wind98%30.04 "Hg10 mi
10:55 pm72 °FPassing clouds.No wind98%30.04 "Hg10 mi
10:35 pm72 °FClear.No wind98%30.04 "Hg10 mi
9:55 pm74 °FClear.No wind94%30.03 "Hg10 mi
9:35 pm74 °FClear.No wind93%30.03 "Hg10 mi
9:15 pm75 °FClear.No wind89%30.02 "Hg10 mi
8:55 pm76 °FClear.No wind82%30.01 "Hg10 mi
8:35 pm76 °FClear.No wind82%30.00 "Hg10 mi
8:15 pm78 °FClear.No wind79%29.99 "Hg10 mi
7:55 pm77 °FClear.3 mph89%29.99 "Hg10 mi
7:15 pm79 °FSunny.No wind78%29.99 "Hg10 mi
6:55 pm81 °FSunny.5 mph74%30.00 "Hg10 mi
6:35 pm83 °FSunny.No wind67%29.99 "Hg10 mi
6:15 pm88 °FSunny.5 mph53%29.99 "Hg10 mi
5:55 pm91 °FSunny.5 mph48%29.99 "Hg10 mi
5:35 pm91 °FSunny.3 mph47%29.98 "Hg10 mi
5:15 pm91 °FSunny.3 mph45%29.99 "Hg10 mi
4:55 pm92 °FSunny.No wind44%30.00 "Hg10 mi
4:35 pm91 °FSunny.3 mph45%30.00 "Hg10 mi
4:15 pm90 °FSunny.5 mph46%30.00 "Hg10 mi
3:55 pm91 °FScattered clouds.No wind44%30.00 "Hg10 mi
3:35 pm92 °FPartly sunny.5 mph44%30.00 "Hg10 mi
3:15 pm91 °FPartly sunny.8 mph46%30.01 "Hg10 mi
2:55 pm90 °FSunny.3 mph47%30.01 "Hg10 mi
2:35 pm91 °FSunny.3 mph46%30.02 "Hg10 mi
2:15 pm91 °FSunny.No wind46%30.03 "Hg10 mi
Weather by CustomWeather, © 2019

See weather overview